Starlink 30193

operational
NORAD ID: 57414 Int'l Des: 2023-102 Owner: SPXS Country: US Constellation: starlink
LEOCIRCULAR

Über Starlink 30193

Beschreibung wird geladen...

Live-Position

3D-Globus wird geladen...

Nächste Überflüge

Höhenverlauf

Altitude vs Time

uPlot chart will show altitude changes over time

Zweizeiliger Elementsatz

1 57414U 23102L 25260.01700509 -.00000244 00000-0 -30031-5 0 9990
2 57414 43.0015 112.3632 0000830 251.7207 108.3545 15.02535495120119
Epoch: 17. Sept. 2025 • Age: 11 hours

Aktueller Status

Höhe 560.8 km
Geschwindigkeit 7.59 km/s
Subsatellitenpunkt 33.19°N, 19.83°W
Startdatum 19. Juli 2023
Alter 2.1 years
Typ internet

Technische Details

Klassifizierung Payload
Masse 730.00 kg
Trockenmasse 700.00 kg
Gesamtmasse 730.00 kg
Länge 0.30 m
Durchmesser 4.10 m
Spannweite 29.00 m
Form Box + pan
Hersteller SPXS
Bus-Typ Starlink V2M
Phasenstatus In Orbit
Besitzer/Staat SPXS/US

Große Konstellationen

Loading constellations...